• în România
  • Lista ţărilor
  • Pe 7 zile
  • Temperatura apei
  • Hartă satelitară
  • Meteo pe hartă
  • Widget-uri
  • user-avatar
    Intrare

    Meteo pe oră la Innsbruck

    Astăzi, 20 Ianuarie, Sâmbătă

    Timp Temperatura Precipitaţii Vânt Presiune Umiditate
    00:00 -11°C° 0,2 mm 1 m/s 587 mmHg 87%
    01:00 -10°C° 0 mm 1 m/s 588 mmHg 89%
    02:00 -10°C° 0,4 mm 1 m/s 588 mmHg 90%
    03:00 -10°C° 0,4 mm 1 m/s 588 mmHg 92%
    04:00 -10°C° 0,4 mm 1 m/s 588 mmHg 93%
    05:00 -11°C° 0,1 mm 1 m/s 587 mmHg 92%
    06:00 -14°C° 0,1 mm 2 m/s 587 mmHg 91%
    07:00 -15°C° 0,1 mm 2 m/s 587 mmHg 90%
    08:00 -14°C° 0 mm 2 m/s 587 mmHg 86%
    09:00 -13°C° 0 mm 2 m/s 587 mmHg 83%
    10:00 -12°C° 0 mm 2 m/s 587 mmHg 79%
    11:00 -9°C° 0 mm 2 m/s 587 mmHg 74%
    12:00 -8°C° 0 mm 2 m/s 587 mmHg 69%
    13:00 -7°C° 0 mm 2 m/s 587 mmHg 64%
    14:00 -7°C° 0 mm 2 m/s 587 mmHg 70%
    15:00 -7°C° 0 mm 2 m/s 586 mmHg 75%
    16:00 -8°C° 0 mm 2 m/s 585 mmHg 81%
    17:00 -8°C° 0,4 mm 2 m/s 584 mmHg 84%
    18:00 -10°C° 0,4 mm 3 m/s 583 mmHg 87%
    19:00 -12°C° 0,4 mm 3 m/s 583 mmHg 90%
    20:00 -12°C° 1,4 mm 3 m/s 582 mmHg 91%
    21:00 -12°C° 1,4 mm 3 m/s 582 mmHg 93%
    22:00 -12°C° 1,4 mm 3 m/s 582 mmHg 94%
    23:00 -12°C° 1,6 mm 3 m/s 582 mmHg 95%

    Mâine, 21 Ianuarie, Duminică

    Timp Temperatura Precipitaţii Vânt Presiune Umiditate
    00:00 -9°C° 1,6 mm 2 m/s 583 mmHg 95%
    01:00 -9°C° 1,6 mm 2 m/s 583 mmHg 96%
    02:00 -8°C° 1,1 mm 2 m/s 583 mmHg 96%
    03:00 -8°C° 1,1 mm 2 m/s 584 mmHg 96%
    04:00 -8°C° 1,1 mm 2 m/s 584 mmHg 96%
    05:00 -8°C° 1,1 mm 2 m/s 584 mmHg 96%
    06:00 -7°C° 1,1 mm 2 m/s 584 mmHg 96%
    07:00 -7°C° 1,1 mm 2 m/s 585 mmHg 96%
    08:00 -9°C° 1,2 mm 3 m/s 585 mmHg 96%
    09:00 -9°C° 1,2 mm 3 m/s 585 mmHg 96%
    10:00 -9°C° 1,2 mm 3 m/s 586 mmHg 96%
    11:00 -9°C° 0,6 mm 3 m/s 586 mmHg 95%
    12:00 -9°C° 0,6 mm 3 m/s 587 mmHg 94%
    13:00 -10°C° 0,6 mm 3 m/s 587 mmHg 94%
    14:00 -10°C° 0,5 mm 3 m/s 588 mmHg 94%
    15:00 -9°C° 0,5 mm 2 m/s 588 mmHg 94%
    16:00 -9°C° 0,5 mm 2 m/s 589 mmHg 94%
    17:00 -10°C° 0,7 mm 2 m/s 589 mmHg 94%
    18:00 -10°C° 0,7 mm 2 m/s 589 mmHg 94%
    19:00 -12°C° 0,7 mm 2 m/s 590 mmHg 94%
    20:00 -10°C° 0,9 mm 2 m/s 590 mmHg 94%
    21:00 -10°C° 0,9 mm 2 m/s 590 mmHg 93%
    22:00 -10°C° 0,9 mm 2 m/s 590 mmHg 93%
    23:00 -9°C° 0,9 mm 2 m/s 590 mmHg 93%

    Poimâine, 22 Ianuarie, Luni

    Timp Temperatura Precipitaţii Vânt Presiune Umiditate
    00:00 -9°C° 0,9 mm 2 m/s 590 mmHg 93%
    01:00 -8°C° 0,9 mm 2 m/s 590 mmHg 93%
    02:00 -7°C° 2,1 mm 2 m/s 590 mmHg 94%
    03:00 -6°C° 2,1 mm 2 m/s 589 mmHg 94%
    04:00 -6°C° 2,1 mm 2 m/s 589 mmHg 95%
    05:00 -5°C° 3 mm 2 m/s 589 mmHg 95%
    06:00 -5°C° 3 mm 2 m/s 589 mmHg 96%
    07:00 -5°C° 3 mm 2 m/s 589 mmHg 96%
    08:00 -4°C° 2,8 mm 2 m/s 590 mmHg 96%
    09:00 -4°C° 2,8 mm 2 m/s 590 mmHg 96%
    10:00 -4°C° 2,8 mm 2 m/s 591 mmHg 97%
    11:00 -3°C° 1,3 mm 2 m/s 591 mmHg 97%
    12:00 -3°C° 1,3 mm 2 m/s 591 mmHg 97%
    13:00 -2°C° 1,3 mm 2 m/s 591 mmHg 97%
    14:00 -2°C° 0,2 mm 2 m/s 592 mmHg 97%
    15:00 -2°C° 0,2 mm 2 m/s 592 mmHg 97%
    16:00 -2°C° 0,2 mm 2 m/s 592 mmHg 97%
    17:00 -3°C° 0,1 mm 2 m/s 592 mmHg 96%
    18:00 -3°C° 0,1 mm 2 m/s 592 mmHg 95%
    19:00 -4°C° 0,1 mm 2 m/s 592 mmHg 94%
    20:00 -4°C° 0,1 mm 2 m/s 592 mmHg 93%
    21:00 -4°C° 0,1 mm 2 m/s 592 mmHg 92%
    22:00 -4°C° 0,1 mm 2 m/s 592 mmHg 91%
    23:00 -4°C° 0,7 mm 2 m/s 593 mmHg 92%

    23 Ianuarie, Marţi

    Timp Temperatura Precipitaţii Vânt Presiune Umiditate
    00:00 -2°C° 0,7 mm 1 m/s 593 mmHg 93%
    01:00 -2°C° 0,7 mm 1 m/s 593 mmHg 94%
    02:00 -2°C° 0,8 mm 1 m/s 593 mmHg 94%
    03:00 -2°C° 0,8 mm 1 m/s 593 mmHg 94%
    04:00 -2°C° 0,8 mm 1 m/s 593 mmHg 95%
    05:00 -2°C° 1,5 mm 1 m/s 594 mmHg 95%
    06:00 -2°C° 1,5 mm 1 m/s 594 mmHg 95%
    07:00 -1°C° 1,5 mm 1 m/s 595 mmHg 95%
    08:00 -3°C° 0,8 mm 2 m/s 595 mmHg 96%
    09:00 -3°C° 0,8 mm 2 m/s 596 mmHg 96%
    10:00 -3°C° 0,8 mm 2 m/s 597 mmHg 97%
    11:00 -2°C° 0,1 mm 2 m/s 597 mmHg 98%
    12:00 -2°C° 0,1 mm 2 m/s 597 mmHg 99%
    13:00 -2°C° 0,1 mm 2 m/s 598 mmHg 99%
    14:00 -2°C° 0 mm 2 m/s 598 mmHg 99%
    15:00 -2°C° 0 mm 2 m/s 598 mmHg 98%
    16:00 -1°C° 0 mm 1 m/s 598 mmHg 98%
    17:00 -2°C° 0 mm 1 m/s 598 mmHg 97%
    18:00 -3°C° 0 mm 1 m/s 598 mmHg 96%
    19:00 -4°C° 0 mm 1 m/s 598 mmHg 96%
    20:00 -6°C° 0 mm 1 m/s 598 mmHg 92%
    21:00 -6°C° 0 mm 1 m/s 598 mmHg 89%
    22:00 -7°C° 0 mm 1 m/s 598 mmHg 86%
    23:00 -7°C° 0 mm 1 m/s 598 mmHg 81%

    24 Ianuarie, Miercuri

    Timp Temperatura Precipitaţii Vânt Presiune Umiditate
    00:00 -7°C° 0 mm 1 m/s 598 mmHg 77%
    01:00 -7°C° 0 mm 1 m/s 598 mmHg 72%
    02:00 -7°C° 0 mm 1 m/s 598 mmHg 69%
    03:00 -7°C° 0 mm 1 m/s 598 mmHg 65%
    04:00 -7°C° 0 mm 1 m/s 598 mmHg 62%
    05:00 -7°C° 0 mm 1 m/s 598 mmHg 60%
    06:00 -7°C° 0 mm 1 m/s 598 mmHg 58%
    07:00 -7°C° 0 mm 1 m/s 598 mmHg 56%
    08:00 -6°C° 0 mm 1 m/s 599 mmHg 60%
    09:00 -3°C° 0 mm 1 m/s 600 mmHg 64%
    10:00 -1°C° 0 mm 1 m/s 601 mmHg 67%
    11:00 -1°C° 0 mm 1 m/s 601 mmHg 75%
    12:00 0°C° 0 mm 1 m/s 601 mmHg 83%
    13:00 +1°C° 0 mm 1 m/s 601 mmHg 92%
    14:00 +1°C° 0 mm 1 m/s 601 mmHg 88%
    15:00 0°C° 0 mm 1 m/s 600 mmHg 84%
    16:00 0°C° 0 mm 1 m/s 600 mmHg 81%
    17:00 -4°C° 0 mm 2 m/s 599 mmHg 77%
    18:00 -5°C° 0 mm 2 m/s 599 mmHg 73%
    19:00 -6°C° 0 mm 2 m/s 599 mmHg 69%
    20:00 -7°C° 0 mm 2 m/s 598 mmHg 68%
    21:00 -7°C° 0 mm 2 m/s 598 mmHg 67%
    22:00 -7°C° 0 mm 2 m/s 598 mmHg 66%
    23:00 -7°C° 0 mm 2 m/s 598 mmHg 66%

    25 Ianuarie, Joi

    Timp Temperatura Precipitaţii Vânt Presiune Umiditate
    00:00 -8°C° 0 mm 2 m/s 598 mmHg 66%
    01:00 -8°C° 0 mm 2 m/s 598 mmHg 67%
    02:00 -8°C° 0 mm 2 m/s 597 mmHg 67%
    03:00 -8°C° 0 mm 2 m/s 597 mmHg 67%
    04:00 -8°C° 0 mm 2 m/s 597 mmHg 67%
    05:00 -8°C° 0 mm 2 m/s 596 mmHg 66%
    06:00 -8°C° 0 mm 2 m/s 596 mmHg 66%
    07:00 -8°C° 0 mm 2 m/s 596 mmHg 66%
    08:00 -6°C° 0 mm 2 m/s 596 mmHg 68%
    09:00 -5°C° 0 mm 2 m/s 597 mmHg 71%
    10:00 -3°C° 0 mm 2 m/s 597 mmHg 73%
    11:00 -3°C° 0 mm 2 m/s 597 mmHg 79%
    12:00 -2°C° 0 mm 2 m/s 597 mmHg 85%
    13:00 -1°C° 0 mm 2 m/s 597 mmHg 91%
    14:00 -2°C° 0 mm 2 m/s 597 mmHg 90%
    15:00 -2°C° 0 mm 2 m/s 596 mmHg 89%
    16:00 -2°C° 0 mm 2 m/s 596 mmHg 89%
    17:00 -3°C° 0 mm 2 m/s 595 mmHg 86%
    18:00 -4°C° 0 mm 2 m/s 595 mmHg 84%
    19:00 -5°C° 0 mm 2 m/s 594 mmHg 81%
    20:00 -6°C° 0 mm 2 m/s 594 mmHg 81%
    21:00 -6°C° 0 mm 2 m/s 594 mmHg 82%
    22:00 -6°C° 0 mm 2 m/s 594 mmHg 82%
    23:00 -7°C° 0 mm 2 m/s 593 mmHg 83%
    Arată mai mult